Terug naar catalogus

CZ-4C DEB

ActiefLEO
NORAD 36418·DEBRIS·🇨🇳 China

Gelanceerd Mar 5, 2010 vanaf Jiuquan Satellite Launch Center

Loading…

Volgende Passages (komende 24 uur)

TLE

VersSource: Space-Track

Epoch: Sep 14, 2026, 02:04 UTC

1 36418U 10009F   26257.08650462  .00000201  00000-0  19998-3 0  9997
2 36418  63.3643 135.0181 0539710  21.1248 140.6219 13.46451143811680

Volg CZ-4C DEB in realtime met AllMySat

Download on the App Store